This is the latest recevied weather packets stored in our database for station/object IZ8NVY-15. If no packets are shown the sender has not sent any weather packets the latest 10 day(s).
| Time | Temp. | Humidity | Pressure | Rain* | Wind** | Luminosity | Snow |
|---|---|---|---|---|---|---|---|
| 1778180177 | 22.78° C | 59% | 975.1 hPa | - | - | - | - |
| 1778176576 | 23.89° C | 57% | 974.6 hPa | - | - | - | - |
| 1778172984 | 26.67° C | 54% | 974.3 hPa | - | - | - | - |
| 1778169383 | 30° C | 52% | 974.7 hPa | - | - | - | - |
| 1778165774 | 31.11° C | 55% | 975.2 hPa | - | - | - | - |
| 1778162168 | 30.56° C | 59% | 975.9 hPa | - | - | - | - |
| 1778158570 | 30° C | 63% | 976.5 hPa | - | - | - | - |
| 1778154970 | 28.89° C | 69% | 977.1 hPa | - | - | - | - |
| 1778151378 | 27.22° C | 80% | 977.8 hPa | - | - | - | - |
| 1778147762 | 27.22° C | 82% | 978.1 hPa | - | - | - | - |
| 1778144162 | 26.67° C | 77% | 978.3 hPa | - | - | - | - |
| 1778140562 | 26.11° C | 78% | 978.2 hPa | - | - | - | - |
| 1778136962 | 22.78° C | 85% | 978.2 hPa | - | - | - | - |
| 1778129759 | 15° C | 87% | 977.8 hPa | - | - | - | - |
| 1778126159 | 15° C | 86% | 977.7 hPa | - | - | - | - |
| 1778118949 | 15° C | 85% | 978.4 hPa | - | - | - | - |
| 1778115358 | 15° C | 83% | 978.4 hPa | - | - | - | - |
| 1778111747 | 15° C | 81% | 978.8 hPa | - | - | - | - |
| 1778108145 | 15.56° C | 78% | 979.3 hPa | - | - | - | - |
| 1778104544 | 16.11° C | 74% | 979.3 hPa | - | - | - | - |
| 1778100943 | 16.67° C | 65% | 979.3 hPa | - | - | - | - |
| 1778097342 | 18.33° C | 60% | 979.7 hPa | - | - | - | - |
| 1778090139 | 19.44° C | 57% | 978.1 hPa | - | - | - | - |
| 1778086540 | 20.56° C | 55% | 977.9 hPa | - | - | - | - |
| 1778082941 | 22.22° C | 52% | 978 hPa | - | - | - | - |
* Rain since midnight (hover to see other rain measurements)
** Current wind speed in m/s (hover to see current wind gust speed)